Change the Weather History Date:

Monday, November 11, 2013

  Actual Average Record
Temperature  
Mean Temperature 8 °F -  
Max Temperature 13 °F 34 °F 62 °F (2005)
Min Temperature 3 °F 18 °F -9 °F (1966)
Degree Days  
Heating Degree Days 57    
Moisture  
Dew Point 5 °F    
Average Humidity 75    
Maximum Humidity 86    
Minimum Humidity 66    
Precipitation  
Precipitation 0.00 in - - ()
Sea Level Pressure  
Sea Level Pressure 30.51 in    
Wind  
Wind Speed 12 mph (NW)    
Max Wind Speed 18 mph    
Max Gust Speed 23 mph    
Visibility 9 miles    
Events Snow    
Averages and records for this station are not official NWS values.
T = Trace of Precipitation, MM = Missing Value Source: NWS Daily Summary

Daily Weather History Graph

Daily Weather History Graph

Search for Another Location

Airport or City:

Trip Planner

Search our weather history database for the weather conditions in past years. The results will help you decide how hot, cold, wet, or windy it might be!

Date:

Astronomy

Nov. 11, 2013 Rise Set
Actual Time 7:19 AM CST 4:47 PM CST
Civil Twilight 6:45 AM CST 5:21 PM CST
Nautical Twilight 6:08 AM CST 5:58 PM CST
Astronomical Twilight 5:32 AM CST 6:34 PM CST
Moon 1:51 PM CST (11/11) 12:40 AM CST (11/11)
Length of Visible Light 10h 35m
Length of Day
9h 28m
Waxing Gibbous, 66% of the Moon is Illuminated
Nov 11
Waxing Gibbous
Nov 17
Full
Nov 25
Last Quarter
Dec 2
New
Dec 9
First Quarter

Hourly Weather History & Observations

Time (CST) Temp. Windchill Dew Point Humidity Pressure Visibility Wind Dir Wind Speed Gust Speed Precip Events Conditions
12:12 AM 13.1 °F -2.6 °F 7.7 °F 79% 30.26 in 10.0 mi NW 15.0 mph 19.6 mph N/A Snow Light Snow
12:31 AM 12.4 °F -4.1 °F 6.8 °F 78% 30.27 in 10.0 mi NW 16.1 mph - N/A Snow Light Snow
12:52 AM 12.0 °F -4.0 °F 6.6 °F 79% 30.28 in 10.0 mi NW 15.0 mph 19.6 mph N/A Snow Light Snow
1:12 AM 12.0 °F -4.0 °F 6.6 °F 79% 30.28 in 10.0 mi NW 15.0 mph - N/A Snow Light Snow
1:31 AM 11.8 °F -2.3 °F 6.6 °F 80% 30.29 in 10.0 mi NW 11.5 mph - N/A Snow Light Snow
1:52 AM 11.8 °F -3.0 °F 6.8 °F 80% 30.29 in 10.0 mi NW 12.7 mph - N/A Snow Light Snow
2:12 AM 12.2 °F -3.7 °F 6.1 °F 76% 30.30 in 10.0 mi NW 15.0 mph 19.6 mph N/A   Overcast
2:31 AM 12.2 °F -5.3 °F 5.9 °F 76% 30.31 in 10.0 mi NW 18.4 mph 23.0 mph N/A   Overcast
2:52 AM 11.7 °F -3.2 °F 6.3 °F 79% 30.32 in 10.0 mi NW 12.7 mph 19.6 mph N/A   Overcast
3:12 AM 11.3 °F -3.6 °F 5.9 °F 79% 30.32 in 10.0 mi NW 12.7 mph - N/A   Overcast
3:31 AM 11.1 °F -3.2 °F 5.9 °F 80% 30.32 in 10.0 mi NW 11.5 mph - N/A Snow Light Snow
3:52 AM 11.3 °F -3.6 °F 5.5 °F 78% 30.33 in 10.0 mi NNW 12.7 mph 18.4 mph N/A Snow Light Snow
4:12 AM 11.3 °F -2.9 °F 5.7 °F 78% 30.34 in 10.0 mi NNW 11.5 mph - N/A Snow Light Snow
4:31 AM 11.3 °F -3.6 °F 5.5 °F 78% 30.34 in 10.0 mi NNW 12.7 mph 17.3 mph N/A Snow Light Snow
4:51 AM 11.3 °F -2.2 °F 5.7 °F 78% 30.36 in 10.0 mi NNW 10.4 mph 17.3 mph N/A Snow Light Snow
5:12 AM 10.6 °F -3.1 °F 5.9 °F 81% 30.37 in 7.0 mi WNW 10.4 mph - N/A Snow Light Snow
5:31 AM 10.4 °F -4.8 °F 5.9 °F 82% 30.37 in 5.0 mi NW 12.7 mph - N/A Snow Light Snow
5:52 AM 10.4 °F -2.4 °F 6.1 °F 83% 30.38 in 5.0 mi NW 9.2 mph - N/A Snow Light Snow
6:12 AM 10.4 °F -3.3 °F 6.4 °F 84% 30.39 in 4.0 mi NW 10.4 mph - N/A Snow Light Snow
6:31 AM 10.4 °F -2.4 °F 6.3 °F 83% 30.40 in 5.0 mi NW 9.2 mph - N/A Snow Light Snow
6:52 AM 10.0 °F -4.5 °F 5.9 °F 83% 30.41 in 4.0 mi NW 11.5 mph - N/A Snow Light Snow
7:12 AM 9.7 °F -4.2 °F 5.9 °F 85% 30.42 in 3.0 mi NW 10.4 mph - N/A Snow Light Snow
7:31 AM 9.7 °F -3.3 °F 5.7 °F 84% 30.44 in 2.5 mi NW 9.2 mph - N/A Snow Light Snow
7:52 AM 9.5 °F -1.5 °F 5.7 °F 85% 30.45 in 4.0 mi NW 6.9 mph - N/A Snow Light Snow
8:12 AM 10.0 °F -3.7 °F 5.9 °F 83% 30.46 in 4.0 mi WNW 10.4 mph - N/A Snow Light Snow
8:31 AM 10.8 °F 1.2 °F 5.5 °F 79% 30.46 in 7.0 mi NW 5.8 mph 9.2 mph N/A Snow Light Snow
8:51 AM 10.4 °F 0.8 °F 6.3 °F 83% 30.47 in 4.0 mi NW 5.8 mph - N/A Snow Light Snow
9:12 AM 11.3 °F -0.4 °F 5.9 °F 79% 30.49 in 4.0 mi NNW 8.1 mph - N/A Snow Light Snow
9:31 AM 11.3 °F -3.6 °F 5.0 °F 76% 30.49 in 7.0 mi NNW 12.7 mph 18.4 mph N/A Snow Light Snow
9:52 AM 11.7 °F -1.7 °F 5.0 °F 75% 30.50 in 7.0 mi NNW 10.4 mph 18.4 mph N/A Snow Light Snow
10:12 AM 12.0 °F -2.7 °F 4.8 °F 73% 30.51 in 7.0 mi NNW 12.7 mph 17.3 mph N/A Snow Light Snow
10:31 AM 12.0 °F -2.7 °F 5.0 °F 73% 30.52 in 7.0 mi NNW 12.7 mph 19.6 mph N/A   Overcast
10:51 AM 12.2 °F -0.2 °F 4.8 °F 72% 30.53 in 7.0 mi NNW 9.2 mph - N/A   Overcast
11:12 AM 12.6 °F -1.4 °F 4.8 °F 71% 30.53 in 10.0 mi NW 11.5 mph 18.4 mph N/A   Overcast
11:31 AM 13.1 °F -1.4 °F 4.8 °F 70% 30.53 in 7.0 mi NNW 12.7 mph - N/A   Overcast
11:51 AM 13.1 °F -2.0 °F 4.6 °F 69% 30.53 in 7.0 mi NNW 13.8 mph - N/A Snow Light Snow
12:12 PM 13.1 °F 0.9 °F 5.2 °F 71% 30.53 in 7.0 mi NNW 9.2 mph - N/A Snow Light Snow
12:31 PM 13.1 °F -2.6 °F 6.1 °F 74% 30.54 in 5.0 mi WNW 15.0 mph - N/A   Haze
12:52 PM 13.1 °F -0.7 °F 5.7 °F 72% 30.54 in 10.0 mi NW 11.5 mph 16.1 mph N/A   Overcast
1:12 PM 13.1 °F -1.4 °F 5.5 °F 72% 30.55 in 10.0 mi NW 12.7 mph 17.3 mph N/A   Overcast
1:31 PM 13.1 °F -0.7 °F 5.0 °F 70% 30.55 in 10.0 mi NW 11.5 mph - N/A   Overcast
1:52 PM 13.1 °F -2.0 °F 4.6 °F 69% 30.56 in 10.0 mi WNW 13.8 mph - N/A   Overcast
2:12 PM 13.1 °F -1.4 °F 4.5 °F 68% 30.56 in 10.0 mi NW 12.7 mph - N/A   Overcast
2:31 PM 12.9 °F -2.8 °F 3.9 °F 67% 30.56 in 10.0 mi NW 15.0 mph - N/A   Overcast
2:52 PM 13.1 °F 0.1 °F 3.6 °F 66% 30.56 in 10.0 mi NNW 10.4 mph 16.1 mph N/A   Overcast
3:12 PM 12.9 °F -2.2 °F 3.7 °F 67% 30.57 in 10.0 mi NW 13.8 mph - N/A   Overcast
3:31 PM 13.1 °F -2.6 °F 4.5 °F 68% 30.57 in 10.0 mi NW 15.0 mph - N/A   Overcast
3:51 PM 13.1 °F 0.1 °F 4.3 °F 68% 30.57 in 10.0 mi North 10.4 mph - N/A   Overcast
4:12 PM 12.7 °F 0.4 °F 3.9 °F 68% 30.58 in 10.0 mi NNW 9.2 mph - N/A   Overcast
4:31 PM 12.7 °F -1.1 °F 4.3 °F 69% 30.59 in 10.0 mi NW 11.5 mph - N/A   Overcast
4:52 PM 12.4 °F 0.0 °F 4.1 °F 69% 30.59 in 10.0 mi NW 9.2 mph - N/A   Overcast
5:12 PM 12.2 °F -1.8 °F 3.4 °F 68% 30.60 in 7.0 mi NW 11.5 mph - N/A   Overcast
5:31 PM 12.0 °F -3.4 °F 3.7 °F 69% 30.61 in 10.0 mi NW 13.8 mph - N/A   Overcast
5:52 PM 11.8 °F -3.6 °F 3.7 °F 70% 30.62 in 10.0 mi NW 13.8 mph 21.9 mph N/A   Overcast
6:12 PM 12.0 °F -4.0 °F 4.1 °F 71% 30.64 in 10.0 mi NW 15.0 mph - N/A   Overcast
6:31 PM 11.7 °F -5.0 °F 3.9 °F 71% 30.65 in 10.0 mi NW 16.1 mph - N/A   Overcast
6:52 PM 11.3 °F -4.9 °F 3.4 °F 70% 30.65 in 10.0 mi NW 15.0 mph - N/A   Overcast
7:12 PM 11.3 °F -2.9 °F 3.2 °F 70% 30.65 in 10.0 mi NNW 11.5 mph - N/A   Overcast
7:31 PM 11.3 °F -0.4 °F 3.9 °F 72% 30.64 in 10.0 mi NW 8.1 mph - N/A   Overcast
7:52 PM 11.3 °F -1.3 °F 4.5 °F 74% 30.66 in 10.0 mi NW 9.2 mph - N/A Snow Light Snow
8:12 PM 11.3 °F -2.9 °F 4.1 °F 73% 30.66 in 10.0 mi NW 11.5 mph - N/A   Overcast
8:31 PM 11.1 °F 0.4 °F 3.7 °F 72% 30.66 in 10.0 mi NW 6.9 mph - N/A   Overcast
8:52 PM 10.4 °F -2.4 °F 3.0 °F 72% 30.66 in 10.0 mi NW 9.2 mph - N/A   Overcast
9:12 PM 9.3 °F -1.7 °F 2.3 °F 73% 30.67 in 10.0 mi NW 6.9 mph - N/A   Overcast
9:31 PM 9.5 °F -1.5 °F 2.8 °F 74% 30.67 in 10.0 mi WNW 6.9 mph - N/A   Overcast
9:51 PM 7.9 °F -2.2 °F 1.4 °F 75% 30.67 in 10.0 mi West 5.8 mph - N/A   Mostly Cloudy
10:12 PM 7.0 °F -1.7 °F 1.0 °F 77% 30.66 in 10.0 mi West 4.6 mph - N/A   Clear
10:31 PM 6.8 °F -2.0 °F 1.6 °F 79% 30.67 in 10.0 mi West 4.6 mph - N/A   Clear
10:52 PM 3.0 °F -6.4 °F -1.7 °F 81% 30.68 in 10.0 mi West 4.6 mph - N/A   Clear
11:12 PM 4.6 °F -4.5 °F 0.5 °F 83% 30.68 in 10.0 mi West 4.6 mph - N/A   Clear
11:31 PM 5.7 °F -3.2 °F 2.3 °F 86% 30.67 in 10.0 mi WSW 4.6 mph - N/A   Clear
11:51 PM 6.3 °F -2.6 °F 2.1 °F 83% 30.66 in 10.0 mi SW 4.6 mph - N/A   Clear